Track STARLINK-1899 now! 10-day predictions STARLINK-1899 is classified as:
1 46787U 20074BA 21055.91668981 -.00014012 00000-0 -35046-3 0 9997 2 46787 53.0528 281.5912 0001498 57.0182 13.7423 15.38786238 1877